• Processing (Info)

  • MPEC 2020-E34 : 2020 EM

    The following Minor Planet Electronic Circular may be linked-to from your own Web pages, but must not otherwise be redistributed electronically.

    A form allowing access to any MPEC is at the bottom of this page.


    Read MPEC 2020-E33 Read MPEC 2020-E35


    M.P.E.C. 2020-E34                                 Issued 2020 March 9, 02:33 UT
    
         The Minor Planet Electronic Circulars contain information on unusual
             minor planets and routine data on comets.  They are published
        on behalf of Division F of the International Astronomical Union by the
              Minor Planet Center, Smithsonian Astrophysical Observatory,
                              Cambridge, MA 02138, U.S.A.
    
                 Prepared using the Tamkin Foundation Computer Network
    
                                  MPC@CFA.HARVARD.EDU
                URL https://www.minorplanetcenter.net/    ISSN 1523-6714
    
                                     2020 EM                                 
    
    
    Observations:
         K20E00M* C2020 03 05.57689215 37 03.75 +26 25 56.2          19.67oVEE034T08
         K20E00M  C2020 03 05.57975615 37 02.55 +26 25 55.3          19.81oVEE034T08
         K20E00M  C2020 03 05.59412515 36 56.69 +26 25 51.0          19.52oVEE034T08
         K20E00M  C2020 03 05.60464415 36 52.44 +26 25 47.9          19.77oVEE034T08
         K20E00M KC2020 03 06.10460015 33 33.66 +26 23 10.0          19.2 GVEE034C95
         K20E00M KC2020 03 06.12205615 33 26.54 +26 23 04.6          19.4 GVEE034C95
         K20E00M  C2020 03 06.36867 15 31 47.96 +26 22 10.6          20.1 RoEE034W85
         K20E00M  C2020 03 06.37002 15 31 47.55 +26 22 10.5          20.0 RoEE034W85
         K20E00M  C2020 03 06.37138 15 31 46.89 +26 22 10.0          19.4 RoEE034W85
         K20E00M KC2020 03 06.42534 15 31 25.43 +26 21 27.6          19.4 GVEE034H36
         K20E00M KC2020 03 06.43019 15 31 23.46 +26 21 26.0          19.7 GVEE034H36
         K20E00M KC2020 03 06.43463 15 31 21.72 +26 21 25.7          20.0 GVEE034H36
         K20E00M ^C2020 03 06.52972 15 30 43.26 +26 20 55.5          19.8 RoEE034695
         K20E00M ^C2020 03 06.53093 15 30 42.75 +26 20 55.0          20.1 RoEE034695
         K20E00M ^C2020 03 06.53216 15 30 42.26 +26 20 54.6          20.0 RoEE034695
         K20E00M KC2020 03 07.03929715 27 20.59 +26 17 39.6          19.5 GVEE034J95
         K20E00M KC2020 03 07.04553515 27 18.07 +26 17 37.3          19.8 GVEE034J95
         K20E00M KC2020 03 07.05113415 27 15.76 +26 17 35.3          20.0 GVEE034J95
         K20E00M KC2020 03 07.31385615 25 30.61 +26 15 55.9          19.9 VuEE034H21
         K20E00M KC2020 03 07.31589815 25 29.79 +26 15 55.3          20.3 VuEE034H21
         K20E00M KC2020 03 07.31909715 25 28.48 +26 15 54.2          20.2 VuEE034H21
         K20E00M KC2020 03 07.32141215 25 27.58 +26 15 53.4          19.9 VuEE034H21
         K20E00M pC2020 03 07.97673215 21 04.95 +26 11 07.1          20.2 GVEE034L01
         K20E00M KC2020 03 07.97870615 21 04.14 +26 11 07.2          20.2 GVEE034L01
         K20E00M KC2020 03 07.98200315 21 02.82 +26 11 05.8          20.2 GVEE034L01
         K20E00M KC2020 03 07.98463515 21 01.78 +26 11 04.1          19.8 GVEE034L01
         K20E00M KC2020 03 07.98727515 21 00.73 +26 11 02.8          20.2 GVEE034L01
         K20E00M pC2020 03 07.98993115 20 59.61 +26 11 01.7          20.3 GVEE034L01
         K20E00M KC2020 03 08.01331 15 20 50.16 +26 10 51.9          19.6 GVEE034203
         K20E00M KC2020 03 08.03700 15 20 40.51 +26 10 41.2          19.4 GVEE034203
         K20E00M KC2020 03 08.06178 15 20 30.48 +26 10 30.7          19.4 GVEE034203
         K20E00M KC2020 03 08.11694 15 20 07.93 +26 10 06.0          20.0 GVEE034204
         K20E00M HC2020 03 08.12551 15 20 04.43 +26 10 02.1                VEE034204
         K20E00M KC2020 03 08.13406 15 20 00.97 +26 09 57.9                VEE034204
         K20E00M KC2020 03 09.00415315 14 12.19 +26 02 38.2          19.7 GVEE034J95
         K20E00M KC2020 03 09.01440915 14 08.07 +26 02 32.6          20.1 GVEE034J95
    
    Observer details:
    203 GiaGa Observatory.  Observers S. Foglia, G. Galli.  Measurer G. Galli.  
        0.36-m f/5.76 Schmidt-Cassegrain + CCD.
    204 Schiaparelli Observatory.  Observer L. Buzzi.  0.84-m f/3.5 reflector + CCD.
    695 Kitt Peak.  Observer A. F. Tubbiolo.  2.3-m f/9 reflector + CCD.
    C95 SATINO Remote Observatory, Haute Provence.  Observer J. Jahn.  0.60-m f/3.2 
       Newtonian reflector + CCD.
    H21 Astronomical Research Observatory, Westfield.  Observer R. Holmes.  
        Measurers S. Foglia, L. Buzzi, T. Linder, R. Holmes.  0.76-m f/3.0 
       astrograph + CCD.
    H36 Sandlot Observatory, Scranton.  Observer G. Hug.  0.56-m f/5.1 reflector + 
       CCD.
    J95 Great Shefford.  Observer P. Birtwhistle.  0.41-m f/6.3 Schmidt-Cassegrain 
       + CCD.
    L01 Visnjan Observatory, Tican.  Observer K. Korlevic.  1.0-m f/2.9 reflector + 
       CCD.
    T08 ATLAS-MLO, Mauna Loa.  Observers L. Denneau, J. Tonry, A. Heinze, H. 
       Weiland, H. Flewelling.  Measurers L. Denneau, J. Tonry, A. Heinze, H. 
       Weiland, H. Flewelling, B. Stalder, A. Fitzsimmons, J. Robinson, N. Erasmus. 
        0.5-m reflector + CCD.
    W85 Cerro Tololo-LCO A.  Observer P. Breitenstein.  1.0-m Ritchey-Chretien + 
       CCD.
    
    Orbital elements:
    2020 EM                                                  Earth MOID = 0.2959 AU
    Epoch 2020 May 31.0 TT = JDT 2459000.5                  Veres
    M  59.67616              (2000.0)            P               Q
    n   0.39760525     Peri.   37.25805     +0.45801578     -0.86756931
    a   1.8316169      Node    27.15514     +0.67851608     +0.20036545
    e   0.7108463      Incl.   25.12221     +0.57431478     +0.45516720
    P   2.48           H   19.9           G   0.15           U   9
    Residuals in seconds of arc
    200305 T08  0.3+  0.6+    200306 695  0.2+  0.3+    200307 L01  0.0   0.4+
    200305 T08  0.2-  0.5+    200306 695  0.0   0.3+    200307 L01  0.3+  0.2-
    200305 T08  0.3-  0.1-    200306 695  0.2+  0.3+    200307 L01  0.6+  0.4-
    200305 T08  0.1+  0.4-    200307 J95  0.2+  0.1+    200307 L01  0.0   0.4-
    200306 C95  0.3-  0.4-    200307 J95  0.2+  0.0     200308 203  0.2-  0.2+
    200306 C95  0.8-  0.6-    200307 J95  0.4-  0.0     200308 203  0.5-  0.4-
    200306 W85  0.4-  0.0     200307 H21  0.3-  0.3-    200308 203  0.3+  0.1-
    200306 W85  1.5+  0.3+    200307 H21  0.1-  0.2-    200308 204  0.2-  0.1-
    200306 W85  0.1+  0.2+    200307 H21  0.2-  0.1-    200308 204  0.2-  0.0
    200306 H36  0.2-  0.6-    200307 H21  0.3+  0.0     200308 204  0.3+  0.3-
    200306 H36  0.1-  0.6-    200307 L01  0.1-  0.5-    200309 J95  0.2-  0.3+
    200306 H36  0.8+  0.5+    200307 L01  0.3-  0.4+    200309 J95  0.2+  0.1-
    
    Ephemeris:
    2020 EM                  a,e,i = 1.83, 0.71, 25                  q = 0.5296
    Date    TT    R. A. (2000) Decl.     Delta      r    Elong.  Phase     V
    2020 02 08    18 09 57.6 +23 08 29   0.4222  0.8640    60.9    93.8    21.0
    ...
    2020 02 23    16 49 26.4 +26 07 56   0.3970  1.0555    88.4    69.5    20.5
    ...
    2020 03 02    16 00 26.3 +26 34 47   0.3922  1.1549   104.7    56.1    20.2
    ...
    2020 03 08    15 20 54.9 +26 11 08   0.3966  1.2275   117.6    45.8    20.1
    2020 03 09    15 14 13.3 +26 02 53   0.3983  1.2394   119.7    44.1    20.1
    2020 03 10    15 07 31.5 +25 53 22   0.4002  1.2513   121.8    42.4    20.0
    ...
    2020 03 16    14 28 00.0 +24 30 17   0.4184  1.3214   134.3    32.6    20.0
    ...
    2020 03 24    13 40 18.8 +21 43 00   0.4620  1.4118   148.5    21.6    20.0
    ...
    2020 04 08    12 37 07.1 +15 31 53   0.6039  1.5724   156.0    15.0    20.6
    
    A. U. Tomatic                (C) Copyright 2020 MPC           M.P.E.C. 2020-E34
    


    Read MPEC 2020-E33 Read MPEC 2020-E35


    MPEC number:

    Enter an MPEC number in one of the following forms:

    • 1997-B01 (the full form)
    • J97B01 (the packed version of the full form)
    • B01 (the abbreviated form)